[[{"header":{"parameterUnit":"m.s-1","parameterCategory":1,"la1":30.2992,"la2":30.254,"lo1":-89.0895,"lo2":-89.0443,"dy":0.0025,"dx":0.0025,"nx":19,"ny":19,"refTime":"2026-03-07T03:00:00:Z","depth":0,"parameterNumber":2,"parameterNumberName":"U-component_of_WINDS"},"data":[0,0,0,-0.677,-0.677,-0.6751,-0.6751,-0.6729,-0.6729,0,0,0,0,0,0,0,0,0,0,0,-0.6778,-0.6778,-0.677,-0.677,-0.6751,-0.6751,-0.6729,-0.6729,0,0,0,0,0,0,0,0,0,0,0,-0.6778,-0.6778,-0.6778,-0.677,-0.6751,-0.6751,-0.6729,-0.6742,0,0,0,0,0,0,0,0,0,0,-0.6761,-0.677,-0.6778,-0.6778,-0.677,-0.6751,-0.6751,-0.6743,-0.6742,-0.6739,0,-0.6737,0,-0.6733,-0.6727,-0.6727,0,0,0,-0.6768,-0.6771,-0.6764,-0.6778,-0.677,-0.6751,-0.6759,-0.6742,-0.6741,-0.6737,-0.6737,-0.6736,-0.6732,-0.6727,-0.6727,-0.6716,-0.6716,0,0,-0.6769,-0.6776,-0.6765,-0.6763,-0.6766,-0.676,-0.6758,-0.6741,-0.6741,-0.6737,-0.6735,-0.6732,-0.6727,-0.6727,-0.6716,-0.6716,0,0,0,-0.6773,-0.6776,-0.677,-0.6764,-0.676,-0.6759,-0.6758,-0.6742,-0.6739,-0.6735,-0.6732,-0.6727,-0.6727,-0.6716,-0.6716,-0.6723,0,0,0,-0.6774,-0.6779,-0.677,-0.6774,-0.6761,-0.6751,-0.6759,-0.6741,-0.6738,-0.6732,-0.6727,-0.6727,-0.6716,-0.6716,-0.6722,-0.6725,0,0,0,-0.6779,-0.6779,-0.6777,-0.6774,-0.6766,-0.6751,-0.6747,-0.674,-0.6736,-0.6727,-0.6727,-0.6716,-0.6716,-0.6722,-0.6724,-0.6723,0,0,0,-0.6785,-0.6784,-0.6777,-0.6774,-0.6766,-0.6755,-0.6747,-0.6739,-0.6732,-0.6727,-0.6716,-0.6716,-0.6722,-0.6724,-0.6723,-0.6723,-0.6724,0,0,-0.6787,-0.6784,-0.6782,-0.6776,-0.6767,-0.6758,-0.675,-0.6738,-0.6732,-0.6722,-0.6721,-0.6723,-0.6724,-0.6723,-0.6726,-0.6726,0,0,0,-0.6784,-0.6783,-0.6779,-0.6773,-0.6763,-0.6755,-0.6743,-0.6739,-0.673,-0.6728,-0.6722,-0.6723,-0.6722,-0.6721,-0.6722,-0.672,-0.6717,-0.6717,-0.6717,-0.6796,-0.6787,-0.6783,-0.6771,-0.6765,-0.6753,-0.6746,-0.6738,-0.6732,-0.673,-0.6727,-0.673,-0.673,-0.673,-0.6729,-0.6727,-0.6727,-0.6727,-0.6727,-0.6797,-0.6793,-0.6784,-0.6776,-0.6767,-0.676,-0.6748,-0.6743,-0.6735,-0.6732,-0.6731,-0.6728,-0.6731,-0.6729,-0.6727,-0.6727,-0.6727,-0.6727,-0.6727,-0.6804,-0.68,-0.6794,-0.6783,-0.6775,-0.6764,-0.6756,-0.6748,-0.6741,-0.6739,-0.6735,-0.6735,-0.6733,-0.6738,-0.6738,-0.6738,-0.6738,-0.6738,-0.6738,-0.6813,-0.6805,-0.68,-0.6789,-0.6783,-0.6774,-0.6761,-0.6755,-0.6746,-0.6741,-0.6741,-0.6734,-0.6733,-0.6733,-0.6738,-0.6738,-0.6738,-0.6738,-0.6738,-0.6817,-0.6814,-0.6806,-0.68,-0.6786,-0.6778,-0.6768,-0.6756,-0.675,-0.6746,-0.6739,-0.674,-0.6737,-0.6736,-0.6736,-0.6741,-0.6741,-0.6741,-0.6741,-0.6822,-0.6819,-0.6808,-0.6799,-0.6789,-0.6779,-0.6769,-0.6758,-0.6747,-0.6742,-0.674,-0.6739,-0.6739,-0.6736,-0.6735,-0.6735,-0.674,-0.674,-0.674,-0.6823,-0.6819,-0.6813,-0.6801,-0.6789,-0.6779,-0.6769,-0.6759,-0.6745,-0.674,-0.6738,-0.6738,-0.6736,-0.6736,-0.6731,-0.673,-0.6729,0,0]},{"header":{"parameterUnit":"m.s-1","parameterCategory":1,"la1":30.2992,"la2":30.254,"lo1":-89.0895,"lo2":-89.0443,"dy":0.0025,"dx":0.0025,"nx":19,"ny":19,"refTime":"2026-03-07T03:00:00:Z","depth":0,"parameterNumber":3,"parameterNumberName":"V-component_of_WINDS"},"data":[0,0,0,3.2622,3.2624,3.274,3.274,3.288,3.2881,0,0,0,0,0,0,0,0,0,0,0,3.2582,3.2583,3.2622,3.2625,3.274,3.2741,3.288,3.2881,0,0,0,0,0,0,0,0,0,0,0,3.2581,3.2582,3.2583,3.2625,3.274,3.2741,3.2879,3.2795,0,0,0,0,0,0,0,0,0,0,3.2685,3.2641,3.2582,3.2583,3.2626,3.274,3.2741,3.2792,3.2801,3.2824,0,3.2842,0,3.2864,3.289,3.289,0,0,0,3.2629,3.2634,3.267,3.2583,3.2627,3.274,3.2689,3.2797,3.2807,3.2836,3.2844,3.2849,3.2866,3.2891,3.2891,3.3009,3.301,0,0,3.2623,3.2599,3.2663,3.2677,3.2657,3.2685,3.2693,3.2803,3.2811,3.2845,3.2853,3.2868,3.2892,3.2893,3.3009,3.3009,0,0,0,3.2601,3.2595,3.2629,3.2671,3.2692,3.2689,3.2697,3.2806,3.2819,3.2855,3.287,3.2892,3.2894,3.3009,3.3009,3.3004,0,0,0,3.2598,3.2582,3.2626,3.2613,3.269,3.275,3.2697,3.2811,3.2824,3.2869,3.2892,3.2895,3.3008,3.3009,3.3004,3.3006,0,0,0,3.2576,3.258,3.2594,3.2611,3.266,3.2749,3.2769,3.2815,3.2834,3.289,3.2896,3.3008,3.3009,3.3003,3.3005,3.3032,0,0,0,3.2547,3.2587,3.2594,3.2645,3.2659,3.2744,3.2768,3.2833,3.2881,3.2893,3.3008,3.3009,3.3003,3.3004,3.3031,3.3051,3.3056,0,0,3.2584,3.259,3.2623,3.2632,3.2711,3.2729,3.2807,3.2873,3.29,3.2972,3.2975,3.3004,3.3005,3.3031,3.3094,3.3098,0,0,0,3.2627,3.265,3.2676,3.2721,3.2772,3.2817,3.2874,3.2899,3.2961,3.2931,3.3021,3.3022,3.3039,3.3049,3.3053,3.307,3.3013,3.3013,3.3012,3.2646,3.268,3.2736,3.2783,3.2826,3.2885,3.2924,3.2968,3.2987,3.3008,3.303,3.3064,3.3075,3.3078,3.3095,3.3042,3.3042,3.3042,3.3042,3.2706,3.2745,3.2772,3.2836,3.2871,3.2926,3.2985,3.2997,3.3054,3.3049,3.3066,3.3058,3.3082,3.3099,3.3042,3.3042,3.3042,3.3042,3.3042,3.2724,3.2748,3.2778,3.2848,3.2899,3.2946,3.3,3.303,3.3058,3.3074,3.3102,3.3102,3.3107,3.3085,3.3085,3.3085,3.3085,3.3085,3.3085,3.2731,3.2765,3.2807,3.2867,3.2901,3.295,3.3011,3.3046,3.3092,3.3109,3.311,3.3129,3.3077,3.3065,3.3087,3.3087,3.3087,3.3087,3.3086,3.2781,3.2775,3.2839,3.2874,3.2948,3.2998,3.3035,3.3104,3.3137,3.3164,3.318,3.3136,3.3145,3.3142,3.3132,3.3171,3.3171,3.3171,3.3171,3.2797,3.2804,3.2879,3.2932,3.2988,3.3029,3.3103,3.3152,3.3202,3.3225,3.3224,3.3212,3.3208,3.322,3.3215,3.3206,3.3263,3.3263,3.3263,3.2831,3.2845,3.2902,3.2951,3.3012,3.3064,3.3136,3.3197,3.3252,3.3268,3.3245,3.3241,3.3223,3.3215,3.323,3.3222,3.3207,0,0]}]]